"Pseudo-MPEC" for A11F5VI

Created 2026 Jul 26 18:35:03 UT using Find_Orb

Click here for an explanation of pseudo-MPECs

 
 Astrometry: 
     A11F5VI*0C2026 07 25.46689420 13 38.753+21 16 33.82   ~7PL5 17.90oVNEOCPT08
     A11F5VI 0C2026 07 25.47013820 13 46.375+21 15 57.31   ~7PL5 17.84oVNEOCPT08
     A11F5VI 0C2026 07 25.50787920 15 18.338+21 08 28.57   ~7PL5 18.12oVNEOCPT08
     A11F5VI 0B2026 07 25.88933220 39 50.199+19 14 36.87   ~7PM5 17.6 GWNEOCPG34
     A11F5VI 0B2026 07 25.89061620 39 56.195+19 14 08.08   ~7PM5 17.2 GWNEOCPG34
     A11F5VI 0B2026 07 25.89190520 40 02.130+19 13 38.59   ~7PM5 17.6 GWNEOCPG34
     A11F5VI 0B2026 07 25.89447820 40 14.022+19 12 40.17   ~7PM5 17.4 GWNEOCPG34
     A11F5VI 0B2026 07 25.89576020 40 19.997+19 12 11.21   ~7PM5 17.5 GWNEOCPG34
     A11F5VI 0B2026 07 25.89768420 40 28.942+19 11 26.84   ~7PMK 17.6 GWNEOCPG34
     A11F5VI 0B2026 07 25.90024920 40 40.939+19 10 27.84   ~7PMK 17.5 GWNEOCPG34
     A11F5VI 0B2026 07 25.90282320 40 52.990+19 09 28.57   ~7PMK 17.5 GWNEOCPG34
     A11F5VI KC2026 07 25.91898 20 42 07.44 +19 05 36.1    ~7PMox17.9 VSNEOCPC43
     A11F5VI KC2026 07 25.92066 20 42 15.55 +19 04 55.6    ~7PMox18.2 VSNEOCPC43
     A11F5VI KC2026 07 25.92235 20 42 23.67 +19 04 13.7    ~7PMox18.1 VSNEOCPC43
     A11F5VI KB2026 07 25.93061320 43 12.482+18 58 36.77   ~7PNo 17.4 VqNEOCPD48
     A11F5VI KB2026 07 25.93906720 43 32.431+18 55 00.48   ~7PNZx17.7 GXNEOCPL99
     A11F5VI KB2026 07 25.94220320 43 47.930+18 53 40.31   ~7PNZx17.8 GXNEOCPL99
     A11F5VI KB2026 07 25.94381920 44 17.844+18 53 06.76   ~7PNo 17.2 VqNEOCPD48
     A11F5VI 0B2026 07 25.94526020 44 21.533+18 56 12.34   ~7Q9Z 17.47GXNEOCPL34
     A11F5VI KB2026 07 25.94548720 44 04.406+18 52 17.22   ~7PNZ 17.4 GXNEOCPL99
     A11F5VI KB2026 07 25.95420320 45 04.913+18 49 48.72   ~7PNK 17.3 GXNEOCP595
     A11F5VI KB2026 07 25.95483020 45 08.098+18 49 32.34   ~7PNK 17.2 GXNEOCP595
     A11F5VI KB2026 07 25.95545520 45 11.261+18 49 15.92   ~7PNK 17.0 GXNEOCP595
     A11F5VI KB2026 07 25.95608120 45 14.390+18 48 59.51   ~7PNK 17.7 GXNEOCP595
     A11F5VI KB2026 07 25.95670720 45 17.590+18 48 43.06   ~7PNK 17.4 GXNEOCP595
     A11F5VI 0B2026 07 25.96771820 46 14.088+18 46 24.38   ~7Q9Z 17.05GXNEOCPL34
     A11F5VI 0B2026 07 25.97753520 47 04.601+18 41 56.87   ~7Q9Z 16.80GXNEOCPL34
     A11F5VI KB2026 07 26.07401520 56 19.910+17 47 50.46   ~7Q2K 17.5 VZNEOCPK74
     A11F5VI KB2026 07 26.07589520 56 31.670+17 46 44.26   ~7Q2K 17.2 VZNEOCPK74
     A11F5VI KB2026 07 26.07777420 56 43.474+17 45 37.58   ~7Q2K 17.5 VZNEOCPK74
     A11F5VI KC2026 07 26.15864 21 07 28.45 +16 57 08.6    ~7Q5o 17.7 GXNEOCPW62
     A11F5VI KC2026 07 26.16041 21 07 41.44 +16 55 56.2    ~7Q5o 17.5 GXNEOCPW62
     A11F5VI KC2026 07 26.16217 21 07 54.40 +16 54 43.8    ~7Q5o 17.7 GXNEOCPW62
     A11F5VI  C2026 07 26.39785 21 45 25.01 +13 08 33.9    ~7QAK 16.3 R NEOCP718
     A11F5VI  C2026 07 26.39996 21 45 49.91 +13 05 48.7    ~7QAK 16.2 R NEOCP718
     A11F5VI  C2026 07 26.40243 21 46 19.01 +13 02 33.8    ~7QAK 16.4 R NEOCP718
     A11F5VI KB2026 07 26.50750122 12 41.470+10 22 27.80   ~7QCo 16.2 GWNEOCP900
     A11F5VI KB2026 07 26.51020222 13 23.095+10 17 48.37   ~7QCo 15.9 GWNEOCP900
     A11F5VI KB2026 07 26.51874322 15 35.851+10 02 51.22   ~7QDK 16.4 GWNEOCP900
     A11F5VI KB2026 07 26.52144522 16 18.324+09 58 03.00   ~7QDK 16.3 GWNEOCP900
     A11F5VI KB2026 07 26.52414722 17 00.917+09 53 13.09   ~7QDK 16.7 GWNEOCP900
     A11F5VI KB2026 07 26.54379522 22 17.054+09 16 43.33   ~7QDZ 17.0 GXNEOCPQ06
     A11F5VI KB2026 07 26.54557722 22 46.343+09 13 19.97   ~7QDZ 17.9 GXNEOCPQ06
     A11F5VI KB2026 07 26.54735922 23 15.867+09 09 54.47   ~7QDZ 17.5 GXNEOCPQ06

Station data:
(595) Farra d'Isonzo  (N45.915731 E13.525780)  Italy.  Observers S. Aschi, E.
   Pettarin, G. Panterotto. Measurers S. Aschi, E. Pettarin. 0.40-m f/5.15
   reflector + CCD.
(718) Tooele  (N40.641406 W112.295800)  US/Utah.  Observer P. Wiggins. 0.35-m
   f/5.5 Schmidt-Cassegrain + CCD.
(900) Moriyama  (N35.049753 E135.989940)  Japan.  Observer Y. Ikari. 0.26-m
   f/7.0 reflector + CCD.
(C43) Hoyerswerda  (N51.448368 E14.279200)  Germany.  Observer P. Lindner.
   0.30-m f/6.3 Schmidt-Cassegrain + CCD.
(D48) Niederbexbach Observatory  (N49.330848 E7.263810)  Germany.  Observer
   W. Wiedemann. 0.28-m f/4.3 Schmidt- Cassegrain + CCD.
(G34) Oberfrauendorf  (N50.860002 E13.701500)  Germany.  Observer T. Felber.
   0.35-m f/6.3 Schmidt-Cassegrain + CCD.
(K74) Muensterschwarzach Observatory, Schwarzach  (N49.805276 E10.236400)
   Germany.  Observer C. Gerhard. 0.30-m f/3.75 Newtonian reflector + CCD.
(L34) Galhassin Robotic Telescope, Isnello  (N37.939358 E14.020610)  Italy.
   Observer A. Nastasi. 0.40-m reflector + CCD.
(L99) Novosilky  (N50.607686 E30.602810)  Ukraine.  Observer A. M. Kozhukhov.
   0.30-m f/1.0 astrograph + CMO.
(Q06) Tarui Observatory, Tarui  (N35.394791 E136.495470)  Japan.  Observer H.
   Watanabe. 0.35-m f/1.9 Schmidt-Cassegrain + CMO.
(T08) ATLAS-MLO, Mauna Loa  (N19.536150 W155.576050)  US/Hawaii.  Observers
   L. Denneau, R. Siverd, J. Tonry, H. Weiland. Measurers L. Denneau, N.
   Erasmus, A. Fitzsimmons, J. Robinson, R. Siverd, J. Tonry, H. Weiland.
   0.5-m f/2.0 Schmidt + CCD.
(W62) Comet Hunter Observatory2, New Ringgold  (N40.745185 W75.862390)
   US/Pennsylvania.  Observer J. Maikner. 0.30-m f/3.8 Riccardi-Honders + CCD.

Orbital elements:  A11F5VI
   Perihelion 2026 Sep 10.462758 +/- 0.00676 TT = 11:06:22.2 (JD 2461293.962758)
Epoch 2026 Jul 26.0 TT = JDT 2461247.5   Earth MOID: 0.0014   Ma: 0.0437
M 332.243018740 +/- 0.012           (J2000 ecliptic)             AutoNEOCP
n   0.597402790 +/- 0.000189        Peri.  236.528753 +/- 0.0042
a   1.396232956 +/- 0.000295        Node   123.599450 +/- 0.000044
e   0.35737790 +/- 0.000151         Incl.   15.824310 +/- 0.0047
P   1.650/602.597d         H 26.86  G  0.15   U  7.0
q 0.897250144 +/- 2.1e-5    Q 1.895215768 +/- 0.00061
39 of 44 observations 2026 July 25-26 (25.9 hr); mean residual 0".54
Residuals in arcseconds: 
260725 T08  .72+  .11-    260725 L99( .51-  3.1-)   260726 W62  .16+  .72+    
260725 T08  .04+  .04+    260725 L99( .45-  2.3-)   260726 W62  .14+  .77+    
260725 T08  .95-  .52-    260725 D48  .48+  .07+    260726 W62  .20+  .75+    
260725 G34  .44-  .10-    260725 L34  .06+  .23+    260726 718  .76+  .29-    
260725 G34  .52+  .04+    260725 L99  1.9+  .15+    260726 718  1.9+  .57-    
260725 G34  .14+  .32-    260725 595  .57-  .06+    260726 718  .47+  1.1-    
260725 G34  .43-  .33-    260725 595  .24-  .10+    260726 900  .80-  .05+    
260725 G34  .23-  .05-    260725 595  .13-  .07+    260726 900  .28+  .21-    
260725 G34  .53-  .37-    260725 595  .61-  .10+    260726 900  .40-  .38-    
260725 G34  .42-  .35-    260725 595  .13-  .12+    260726 900  .24-  .28-    
260725 G34  .76-  .02-    260725 L34  .41-  .08-    260726 900  1.5-  .35+    
260725 C43(23.7-  159+)   260725 L34  .07-  .08-    260726 Q06  .22-  .27+    
260725 C43(23.5-  159+)   260726 K74  .59-  .14+    260726 Q06  .91-  .76+    
260725 C43(24.0-  158+)   260726 K74  .50-  .15+    260726 Q06  .39+  .13+    
260725 D48  .26+  .41-    260726 K74  .30-  .05-    

Ephemerides (geocentric):
Date (UTC) HH   RA             Dec           delta  r     elong  mag " sig PA
---- --------  ------------   ------------  ------ ------ -----  --- --------
2026 07 26 19  23 48 28.672   -01 03 48.90  473614 1.0174 126.5 16.4 .537 134
2026 07 26 20  00 06 55.975   -03 20 50.73  463217 1.0172 123.1 16.4 .462 136
2026 07 26 21  00 26 09.919   -05 41 34.83  456683 1.0170 119.5 16.5 .357 140
2026 07 26 22  00 45 56.564   -08 02 38.26  454179 1.0168 115.6 16.6 .229 153
2026 07 26 23  01 05 59.283   -10 20 22.85  455770 1.0167 111.6 16.7 .130  19
2026 07 27 00  01 26 00.046   -12 31 21.93  461415 1.0165 107.6 16.9 .215  80
2026 07 27 01  01 45 40.994   -14 32 45.32  470968 1.0163 103.6 17.0 .396  97
2026 07 27 02  02 04 45.978   -16 22 35.89  484196 1.0161  99.8 17.2 .592 102
2026 07 27 03  02 23 01.746   -17 59 54.57  500808 1.0159  96.2 17.4 .787 104
2026 07 27 04  02 40 18.592   -19 24 34.69  520479 1.0157  92.8 17.7 .972 104
2026 07 27 05  02 56 30.439   -20 37 09.93  542877 1.0155  89.6 17.9 1.14 104
2026 07 27 06  03 11 34.501   -21 38 40.26  567677 1.0153  86.8 18.1 1.30 103
2026 07 27 07  03 25 30.677   -22 30 19.22  594579 1.0151  84.2 18.3 1.43 103
2026 07 27 08  03 38 20.872   -23 13 24.19  623310 1.0149  81.8 18.5 1.55 102
2026 07 27 09  03 50 08.348   -23 49 09.90  653627 1.0147  79.7 18.7 1.66 101
2026 07 27 10  04 00 57.179   -24 18 44.76  685321 1.0145  77.7 18.9 1.75 100
2026 07 27 11  04 10 51.838   -24 43 09.12  718208 1.0143  76.0 19.1 1.83  99
2026 07 27 12  04 19 56.889   -25 03 14.98  752131 1.0141  74.4 19.3 1.90  99
2026 07 27 13  04 28 16.794   -25 19 46.36  786956 1.0139  72.9 19.5 1.96  98
2026 07 27 14  04 35 55.779   -25 33 20.11  822569 1.0137  71.6 19.6 2.02  97
2026 07 27 15  04 42 57.775   -25 44 26.83  858870 1.0135  70.4 19.8 2.06  97
2026 07 27 16  04 49 26.381   -25 53 31.83  895776 1.0134  69.3 20.0 2.10  96
2026 07 27 17  04 55 24.865   -26 00 55.99  933214 1.0132  68.3 20.1 2.14  95
2026 07 27 18  05 00 56.167   -26 06 56.50  971124 1.0130  67.4 20.3 2.17  95
2026 07 27 19  05 06 02.927   -26 11 47.49  .00675 1.0128  66.6 20.4 2.20  94
2026 07 27 20  05 10 47.506   -26 15 40.65  .00701 1.0126  65.8 20.5 2.23  94
2026 07 27 21  05 15 12.008   -26 18 45.61  .00727 1.0124  65.1 20.6 2.25  94
2026 07 27 22  05 19 18.314   -26 21 10.33  .00753 1.0122  64.4 20.8 2.27  93
2026 07 27 23  05 23 08.097   -26 23 01.40  .00779 1.0120  63.8 20.9 2.29  93
2026 07 28 00  05 26 42.853   -26 24 24.32  .00806 1.0118  63.2 21.0 2.31  92
2026 07 28 01  05 30 03.916   -26 25 23.63  .00833 1.0116  62.7 21.1 2.32  92
2026 07 28 02  05 33 12.478   -26 26 03.15  .00860 1.0114  62.2 21.2 2.33  92
2026 07 28 03  05 36 09.609   -26 26 26.06  .00887 1.0112  61.8 21.3 2.35  92
2026 07 28 04  05 38 56.263   -26 26 35.03  .00914 1.0110  61.3 21.4 2.36  91
2026 07 28 05  05 41 33.301   -26 26 32.30  .00941 1.0109  60.9 21.5 2.37  91
2026 07 28 06  05 44 01.495   -26 26 19.77  .00969 1.0107  60.5 21.6 2.38  91
2026 07 28 07  05 46 21.542   -26 25 59.01  .00996 1.0105  60.2 21.7 2.39  90
2026 07 28 08  05 48 34.070   -26 25 31.39  .01023 1.0103  59.9 21.7 2.40  90
2026 07 28 09  05 50 39.646   -26 24 58.04  .01051 1.0101  59.5 21.8 2.40  90
2026 07 28 10  05 52 38.786   -26 24 19.93  .01079 1.0099  59.2 21?? 2.41  90
2026 07 28 11  05 54 31.956   -26 23 37.89  .01106 1.0097  59.0 22?? 2.42  90
2026 07 28 12  05 56 19.581   -26 22 52.61  .01134 1.0095  58.7 22?? 2.42  89
2026 07 28 13  05 58 02.048   -26 22 04.69  .01162 1.0093  58.4 22?? 2.43  89
2026 07 28 14  05 59 39.707   -26 21 14.64  .01190 1.0091  58.2 22?? 2.44  89
2026 07 28 15  06 01 12.883   -26 20 22.89  .01218 1.0089  58.0 22?? 2.44  89
2026 07 28 16  06 02 41.869   -26 19 29.82  .01245 1.0088  57.7 22?? 2.45  89
2026 07 28 17  06 04 06.935   -26 18 35.74  .01273 1.0086  57.5 22?? 2.45  89
2026 07 28 18  06 05 28.331   -26 17 40.91  .01301 1.0084  57.3 22?? 2.46  89